Lexington Weather

Lexington, Massachusetts, USA

36°F
1/28/2020 5:56am 
  • Lexington Conditions: Overcast
  • Temperature: 36.3°F / 2.4°CWarmer 0.3°F than last hour.
  • Dew Point: 29.8°FIncreased 0.3°Fsince last hour.
  • Relative Humidity: 77
  • Wind: Wind from NNW NNW 2 mph, 10-min avg: 1 mph, gust: 4 mph
  • Barometer: 29.65 inRising 0.02  inHg/hr Rising Slowly
  • Visibility: 10 miles
  • Rain Today: 0.00 in
  •   

Regional Weather Roundup
for Boston / Norton, MA

        
000
ASUS41 KBOX 272010
RWRBOX

REGIONAL WEATHER ROUNDUP
NATIONAL WEATHER SERVICE BOSTON/NORTON MA
300 PM EST MON JAN 27 2020

NOTE:  "FAIR" INDICATES FEW OR NO CLOUDS BELOW 12,000 FEET WITH NO 
SIGNIFICANT WEATHER AND/OR OBSTRUCTIONS TO VISIBILITY.

MAZALL-272100-
EASTERN MASSACHUSETTS
  
CITY           SKY/WX    TMP DP  RH WIND       PRES   REMARKS
BOSTON         PTSUNNY   46  25  43 NW13G23   29.54R                  
BEVERLY        FAIR      46  28  49 W12G20    29.52S                  
LAWRENCE       CLOUDY    43  26  51 W14G21    29.54S                  
BEDFORD        PTSUNNY   44  26  49 W16       29.54R                  
BLUE HILL        N/A     41  26  55 W18G25    29.52R                  
NORWOOD        PTSUNNY   46  26  45 W15       29.56R                  
MARSHFIELD     FAIR      46  28  49 W10       29.54S                  
PLYMOUTH       PTSUNNY   44  28  53 W12       29.55R                  
TAUNTON        FAIR      43  26  51 W9        29.56R                  
NEW BEDFORD    PTSUNNY   45  28  51 W15G22    29.56S                  
$$

MAZALL-272100-
CAPE COD AND THE ISLANDS
  
CITY           SKY/WX    TMP DP  RH WIND       PRES   REMARKS
FALMOUTH       PTSUNNY   45  27  49 W17G23    29.55S                  
HYANNIS        FAIR      47  27  45 W17G24    29.54S                  
CHATHAM        PTSUNNY   45  33  63 VRB7      29.56S                  
PROVINCETOWN   PTSUNNY   44  33  65 W10       29.55S                  
NANTUCKET      FAIR      43  34  70 W16G23    29.57F                  
MARTHAS VNYRD  FAIR      44  32  62 W9G20     29.57S                  
$$
 
MAZALL-272100-
CENTRAL AND WESTERN MASSACHUSETTS
  
CITY           SKY/WX    TMP DP  RH WIND       PRES   REMARKS
WORCESTER      CLOUDY    38  26  62 W13       29.54R WCI  30          
FITCHBURG      CLOUDY    42  26  53 W9        29.55S                  
ORANGE         CLOUDY    41  26  55 NW7       29.57R                  
SPRINGFIELD    CLOUDY    41  27  57 W13       29.57S                  
WESTFIELD      CLOUDY    40  28  62 W9        29.59R                  
NORTH ADAMS    NOT AVBL                                               
PITTSFIELD     CLOUDY    36  27  69 W15G25    29.56R WCI  27          
$$
 
RIZALL-272100-
RHODE ISLAND
  
CITY           SKY/WX    TMP DP  RH WIND       PRES   REMARKS
PROVIDENCE     PTSUNNY   44  26  49 W13       29.58R                  
NEWPORT        PTSUNNY   44  28  53 W6        29.57S                  
BLOCK ISLAND   FAIR      42  32  67 W17       29.60S                  
SMITHFIELD     PTSUNNY   41  28  60 W10       29.57R                  
WESTERLY       CLOUDY    44  32  62 W9        29.60S                  
$$
 
CTZALL-272100-
CONNECTICUT
  
CITY           SKY/WX    TMP DP  RH WIND       PRES   REMARKS
BRADLEY INTL   CLOUDY    42  27  55 NW8       29.60R                  
HARTFORD       CLOUDY    43  27  53 W12G18    29.61R                  
BRIDGEPORT     CLOUDY    44  27  51 W12G18    29.62F                  
DANBURY        CLOUDY    40  27  59 W12       29.63S                  
GROTON         CLOUDY    41  33  73 W10       29.60S                  
NEW HAVEN      CLOUDY    45  29  53 NW8       29.61S                  
CHESTER        NOT AVBL                                               
MERIDEN        CLOUDY    43  26  51 W12       29.61S                  
WILLIMANTIC    CLOUDY    42  27  55 NW8       29.60R                  
OXFORD         CLOUDY    40  28  62 W8        29.60F                  
$$

MEZ002-015-021-024-NHZ003-005-008-011-012-014-VTZ005-008-272100-
NORTHERN NEW ENGLAND
  
CITY           SKY/WX    TMP DP  RH WIND       PRES   REMARKS
PORTLAND ME    CLOUDY    45  27  49 W12       29.49R                  
BANGOR ME      CLOUDY    40  31  70 W3        29.45S                  
CONCORD NH     CLOUDY    41  26  55 W8        29.53R                  
MANCHESTER NH  CLOUDY    43  26  51 W12       29.52R                  
NASHUA NH      PTSUNNY   43  26  51 W7G14     29.54S                  
PORTSMOUTH NH  PTSUNNY   43  25  48 W9        29.50R                  
JAFFREY NH     CLOUDY    38  26  62 W7        29.53R                  
KEENE NH       CLOUDY    40  27  59 NW7       29.55S                  
BURLINGTON VT  CLOUDY    36  32  85 CALM      29.57R                  
MT. WASHINGTON SNOW      14  14 100 W36G41      N/A  VSB 0   WCI  -8  
$$

NYZ052-076-272100-
EASTERN NEW YORK
  
CITY           SKY/WX    TMP DP  RH WIND       PRES   REMARKS
ALBANY         CLOUDY    41  28  60 NW13G22   29.63R                  
NEW YORK CITY  CLOUDY    43  28  55 W9        29.65S                  
$$
 
ANZALL-272100-
MARINE OBSERVATIONS
  
STATION/POSITION TIME  TEMP    WIND        PRES    VSBY  WAVE
                       AIR SEA DIR/SP/G                  HT/PER
                 (UTC) (F)     (DEG/KT/KT) (MB)    (MI)  (FT/S)
BOSTON BUOY      1950   43 43  260/ 14/ 16  999.4S         2/11
BUZZARDS BAY     1900   40     260/ 19/ 20 1001.9
NANTUCKET SOUND  1940                        N/A           1/ 3
MASS BAY-STELLWA 1904   41 41  270/ 14/ 16  997.7F  1 7/8  4/11
ISLE OF SHOALS   1900   42     240/ 16/ 17  998.6F
S OF BLOCK IS    2000      44                N/A           6/ 7
$$

......................KEY.........................
  SKY/WX - SKY CONDITION/PRESENT WEATHER
  TMP    - TEMPERATURE IN FAHRENHEIT
  DWPT   - DEWPOINT IN FAHRENHEIT
  RH     - RELATIVE HUMIDITY IN PERCENT
  WIND   - DIRECTION AND SPEED IN MPH
  PRES   - MEAN SEA LEVEL PRESSURE IN INCHES OF HG
  WCI    - WIND CHILL INDEX
  VSB    - VISIBILITY IN MILES
  HX     - HEAT INDEX
  TC     - TEMPERATURE IN CELSIUS
  VRB    - VARIABLE WIND DIRECTION
  N/A    - NOT AVAILABLE
  
      

Other recent Regional Weather Roundups

Tue Jan 28, 5:10am

Tue Jan 28, 5:00am

Tue Jan 28, 4:10am

Tue Jan 28, 4:00am

Tue Jan 28, 3:10am

Tue Jan 28, 3:01am

Tue Jan 28, 2:10am

Tue Jan 28, 2:00am

Tue Jan 28, 1:10am

Tue Jan 28, 1:00am

Tue Jan 28, 12:10am

Tue Jan 28, 12:01am

Mon Jan 27, 11:10pm

Mon Jan 27, 11:00pm

Mon Jan 27, 10:10pm

Mon Jan 27, 10:00pm

Mon Jan 27, 9:10pm

Mon Jan 27, 9:00pm

Mon Jan 27, 8:10pm

Mon Jan 27, 8:01pm

Mon Jan 27, 7:10pm

Mon Jan 27, 7:00pm

Mon Jan 27, 6:10pm

Mon Jan 27, 6:00pm

Mon Jan 27, 5:10pm

Mon Jan 27, 5:00pm

Mon Jan 27, 4:10pm

Mon Jan 27, 4:00pm

Mon Jan 27, 3:00pm

Mon Jan 27, 2:10pm

Mon Jan 27, 2:00pm

Mon Jan 27, 1:10pm

Mon Jan 27, 1:00pm

Mon Jan 27, 12:10pm

Mon Jan 27, 12:00pm

Mon Jan 27, 11:10am

Mon Jan 27, 11:01am

Mon Jan 27, 10:10am

Mon Jan 27, 10:00am

Mon Jan 27, 9:10am

Mon Jan 27, 9:00am

Mon Jan 27, 8:10am

Mon Jan 27, 8:00am

Mon Jan 27, 7:10am

Mon Jan 27, 7:00am

Mon Jan 27, 6:10am

Mon Jan 27, 6:00am

Mon Jan 27, 5:10am

Mon Jan 27, 5:00am

Mon Jan 27, 4:10am

Mon Jan 27, 4:01am

Mon Jan 27, 3:10am

Mon Jan 27, 3:00am

Mon Jan 27, 2:10am

Mon Jan 27, 2:00am

Mon Jan 27, 1:10am

Mon Jan 27, 1:00am

Mon Jan 27, 12:10am

Mon Jan 27, 12:00am

Sun Jan 26, 11:10pm

Sun Jan 26, 11:00pm

Sun Jan 26, 10:10pm

Sun Jan 26, 10:00pm

Sun Jan 26, 9:10pm

Sun Jan 26, 9:01pm

Sun Jan 26, 8:10pm

Sun Jan 26, 8:00pm

Sun Jan 26, 7:10pm

Sun Jan 26, 7:00pm

Sun Jan 26, 6:10pm

Sun Jan 26, 6:01pm

Sun Jan 26, 5:10pm

Sun Jan 26, 5:01pm

Sun Jan 26, 4:10pm

Sun Jan 26, 4:00pm

Sun Jan 26, 3:10pm

Sun Jan 26, 3:01pm

Sun Jan 26, 2:10pm

Sun Jan 26, 2:01pm

Sun Jan 26, 1:10pm

Sun Jan 26, 1:00pm

Sun Jan 26, 12:10pm

Sun Jan 26, 12:00pm

Sun Jan 26, 11:10am

Sun Jan 26, 11:01am

Sun Jan 26, 10:10am

Sun Jan 26, 10:01am

Sun Jan 26, 9:10am

Sun Jan 26, 9:00am

Sun Jan 26, 8:10am

Sun Jan 26, 8:00am

Sun Jan 26, 7:10am

Sun Jan 26, 7:00am

Sun Jan 26, 6:10am

Sun Jan 26, 6:00am

Sun Jan 26, 5:10am

Sun Jan 26, 5:00am

Sun Jan 26, 4:10am

Sun Jan 26, 4:01am

Sun Jan 26, 3:10am

Sun Jan 26, 3:01am

Sun Jan 26, 2:10am

Sun Jan 26, 2:00am

Sun Jan 26, 1:10am

Sun Jan 26, 1:00am

Sun Jan 26, 12:10am

Sun Jan 26, 12:00am

Sat Jan 25, 11:10pm

Sat Jan 25, 11:00pm

Sat Jan 25, 10:10pm

Sat Jan 25, 10:01pm

Sat Jan 25, 9:10pm

Sat Jan 25, 9:01pm

Sat Jan 25, 8:10pm

Sat Jan 25, 8:01pm

Sat Jan 25, 7:10pm

Sat Jan 25, 7:01pm

Sat Jan 25, 6:10pm

Sat Jan 25, 6:01pm

Sat Jan 25, 5:10pm

Sat Jan 25, 5:01pm

Sat Jan 25, 4:10pm

Sat Jan 25, 4:00pm

Sat Jan 25, 3:10pm

Sat Jan 25, 3:01pm

Sat Jan 25, 2:10pm

Sat Jan 25, 2:00pm

Sat Jan 25, 1:10pm

Sat Jan 25, 1:00pm

Sat Jan 25, 12:10pm

Sat Jan 25, 12:00pm

Sat Jan 25, 11:10am

Sat Jan 25, 11:00am

Sat Jan 25, 10:10am

Sat Jan 25, 10:00am

Sat Jan 25, 9:10am

Sat Jan 25, 9:00am

Sat Jan 25, 8:10am

Sat Jan 25, 8:01am

Sat Jan 25, 7:10am

Sat Jan 25, 7:00am

Sat Jan 25, 6:10am

Sat Jan 25, 6:00am

Meta data:

ID: 42609080-453a-4b7c-b4e5-dbd65ebae5b2
Link: https://api.weather.gov/products/42609080-453a-4b7c-b4e5-dbd65ebae5b2